This is the latest recevied weather packets stored in our database for station/object AA8FM-13. If no packets are shown the sender has not sent any weather packets the latest 10 day(s).
| Time | Temp. | Humidity | Pressure | Rain* | Wind** | Luminosity | Snow |
|---|---|---|---|---|---|---|---|
| 1777669592 | 13.33° C | 62% | 1008.4 hPa | 0 mm | - | 89 W/m² | - |
| 1777669289 | 13.89° C | 60% | 1008.4 hPa | 0 mm | - | 133 W/m² | - |
| 1777668985 | 14.44° C | 57% | 1008.4 hPa | 0 mm | - | 143 W/m² | - |
| 1777668683 | 14.44° C | 54% | 1008.2 hPa | 0 mm | - | 186 W/m² | - |
| 1777668379 | 15° C | 52% | 1008.1 hPa | 0 mm | - | 108 W/m² | - |
| 1777668075 | 15° C | 51% | 1007.8 hPa | 0 mm | - | 74 W/m² | - |
| 1777667772 | 15° C | 49% | 1007.6 hPa | 0 mm | - | 127 W/m² | - |
| 1777667470 | 15.56° C | 47% | 1007.7 hPa | 0 mm | - | 247 W/m² | - |
| 1777667166 | 15.56° C | 48% | 1007.7 hPa | 0 mm | - | 159 W/m² | - |
| 1777666864 | 15.56° C | 45% | 1007.6 hPa | 0 mm | - | 161 W/m² | - |
| 1777666561 | 15.56° C | 46% | 1007.5 hPa | 0 mm | - | 131 W/m² | - |
| 1777666256 | 16.11° C | 44% | 1007.6 hPa | 0 mm | - | 140 W/m² | - |
| 1777665954 | 16.11° C | 41% | 1007.5 hPa | 0 mm | - | 174 W/m² | - |
| 1777665651 | 16.67° C | 41% | 1007.5 hPa | 0 mm | - | 179 W/m² | - |
| 1777665349 | 16.67° C | 41% | 1007.3 hPa | 0 mm | - | 262 W/m² | - |
| 1777665044 | 16.67° C | 40% | 1007.5 hPa | 0 mm | - | 224 W/m² | - |
| 1777664739 | 16.67° C | 40% | 1007.5 hPa | 0 mm | - | 256 W/m² | - |
| 1777664436 | 17.22° C | 38% | 1007.5 hPa | 0 mm | - | 256 W/m² | - |
| 1777664133 | 17.22° C | 40% | 1007.4 hPa | 0 mm | - | 565 W/m² | - |
| 1777663832 | 17.22° C | 38% | 1007.7 hPa | 0 mm | - | 644 W/m² | - |
| 1777663528 | 17.22° C | 38% | 1007.5 hPa | 0 mm | - | 589 W/m² | - |
| 1777663226 | 17.22° C | 37% | 1007.3 hPa | 0 mm | - | 273 W/m² | - |
| 1777662923 | 16.67° C | 36% | 1007.7 hPa | 0 mm | - | 572 W/m² | - |
| 1777662620 | 16.67° C | 38% | 1007.5 hPa | 0 mm | - | 709 W/m² | - |
| 1777662316 | 16.67° C | 38% | 1007.8 hPa | 0 mm | - | 262 W/m² | - |
* Rain latest hour (hover to see other rain measurements)
** Current wind speed in m/s (hover to see current wind gust speed)